Location: Unspecified
(49.9820°N, 20.4363°E)
Time: 19:15:25
(UTC+02:00)

A-11 Canister half - Pass Details

Date: 23 May 2026
Orbit: 1515 x 1685 km, 47.2° (Epoch: 6 June)

Event Time Altitude Azimuth Distance (km) Brightness Sun altitude
Rises 00:55:35 0° 282° (WNW) 4,711 11.6 -19.3°
Reaches altitude 10° 00:58:42 10° 279° (W) 3,711 11.0 -19.3°
Maximum altitude 01:07:46 59° 203° (SSW) 1,715 8.9 -19.1°
Drops below altitude 10° 01:16:44 10° 127° (SE) 3,674 10.7 -18.9°
Sets 01:19:49 0° 124° (SE) 4,662 11.3 -18.8°
